Location: ??????????
(54.8537°N, 38.8755°E)
Time: 23:11:33
(UTC+00:00)

Transit 2A Rocket - Pass Details

Date: 17 September 2024
Orbit: 582 x 908 km, 66.7° (Epoch: 09 October)

Event Time Altitude Azimuth Distance (km) Brightness Sun altitude
Exits shadow 23:08:36 28° 300° (WNW) 1,646 6.6 -29.0°
Maximum altitude 23:10:38 35° 337° (NNW) 1,438 6.6 -28.9°
Drops below altitude 10° 23:16:07 10° 42° (NE) 2,566 8.6 -28.4°
Sets 23:18:49 0° 51° (NE) 3,476 9.5 -28.2°
